Wind_Speed
82 81 80 80 80 80 81 80 80 81 81 82 82 83 84 85 86 87 87 88 89 91 92 94 95 96 98 100 101 102 102 103 103 102 102 102 102 102 102 102 102 102 102 103 104 105 105 106 107 108 109 110 111 113 114 115 117 118 119 121 122 123 124 124 125 126 127 127 128 129 129 130 131 132 132 132 133 134 134 134 135 135 136 136 137
81 81 81 81 81 81 81 82 82 83 83 84 85 86 86 87 88 89 90 91 92 94 95 97 98 100 101 102 102 102 103 102 102 102 102 102 102 102 102 102 102 102 102 103 104 104 105 106 107 108 109 110 111 112 113 115 116 117 118 120 121 122 123 124 125 126 127 128 128 129 130 131 131 131 132 132 133 134 134 135 135 136 136 137 137
81 82 82 82 83 83 84 84 85 85 86 87 87 88 89 90 91 92 93 95 96 97 98 99 100 101 101 102 102 102 102 102 102 102 102 102 102 102 102 102 103 103 103 103 104 105 105 106 107 108 109 110 111 112 113 114 116 117 118 119 120 122 123 124 125 125 126 127 127 128 129 130 130 131 132 132 133 133 134 135 135 136 137 137 138
82 82 83 83 84 85 85 86 87 88 88 89 90 91 92 93 94 95 96 97 97 98 99 99 100 101 101 102 102 102 102 102 101 101 101 101 101 102 102 102 103 104 104 104 105 105 106 107 107 108 109 110 111 113 114 115 116 117 118 119 120 121 122 123 124 125 125 126 126 127 128 129 129 130 131 132 132 133 133 134 135 136 137 137 138
82 83 84 85 86 87 88 89 89 90 91 91 92 93 93 94 94 95 95 96 97 97 98 98 99 99 100 100 100 100 100 101 101 100 100 101 101 101 102 102 102 102 102 103 103 103 104 105 106 107 108 109 110 111 112 113 115 116 117 118 119 120 121 122 122 123 124 124 125 126 127 127 128 129 130 130 131 132 132 133 134 134 135 136 136
84 85 86 88 89 90 90 90 91 91 91 92 92 92 93 93 94 94 95 95 95 96 96 96 97 97 98 99 99 99 100 100 101 100 100 100 99 99 98 97 97 97 97 97 97 98 98 99 101 102 103 104 105 107 108 110 111 112 113 114 115 116 117 118 118 119 120 121 121 122 123 123 124 125 126 126 127 127 128 129 130 130 131 131 132
86 87 88 89 90 90 91 91 91 91 91 91 91 91 91 92 92 92 92 92 93 93 94 95 96 97 98 99 99 100 100 100 99 98 97 95 94 93 91 90 90 90 90 91 91 92 93 94 96 98 99 101 102 103 104 105 107 108 108 109 110 111 112 112 113 113 114 115 116 116 117 118 119 119 120 121 121 122 123 123 124 125 126 127 127
87 88 89 90 91 91 91 91 90 90 90 89 88 88 88 88 89 89 90 91 92 93 94 95 96 97 98 98 98 98 97 96 94 93 91 89 88 87 86 86 86 86 87 88 89 91 92 94 95 97 99 100 101 102 103 104 104 105 106 106 107 108 108 109 109 110 110 111 112 112 113 114 115 116 116 117 118 119 120 121 121 122 123 124 125
88 89 89 89 89 89 89 88 88 87 87 87 87 86 87 87 88 89 90 92 93 94 95 95 96 96 96 95 94 93 92 90 89 87 86 85 84 84 84 84 85 86 87 89 90 92 94 95 97 99 100 101 102 102 103 103 104 104 105 105 106 107 107 107 107 108 108 109 109 110 111 112 113 113 114 115 115 116 118 119 119 120 121 121 122
87 87 87 87 87 87 87 87 87 87 87 87 88 88 88 89 90 91 91 92 93 93 93 93 92 92 91 90 89 87 86 85 85 84 83 83 83 83 84 85 86 87 89 91 92 94 96 98 99 100 101 102 103 103 103 104 104 104 104 105 105 106 106 106 106 106 107 107 108 108 109 110 111 111 112 113 114 115 116 117 117 118 119 120 120
87 87 88 88 88 88 88 88 88 88 88 88 88 88 89 89 89 90 90 90 90 90 89 88 87 86 85 85 84 84 83 83 83 83 83 83 83 84 85 86 88 89 91 93 95 97 98 100 101 102 102 103 103 103 103 104 103 103 103 104 104 104 105 105 105 106 106 107 107 108 108 109 109 110 111 112 112 113 114 115 116 117 117 118 118
88 88 88 89 88 88 88 87 87 86 86 86 86 86 86 86 86 86 86 86 85 84 84 83 82 82 82 82 82 82 83 83 83 84 84 84 85 85 86 88 89 91 93 95 96 98 99 100 101 101 102 102 102 102 102 102 102 102 102 102 103 103 104 104 104 105 106 106 107 107 107 108 108 109 109 110 111 112 112 113 114 114 115 116 116
87 86 86 85 85 84 83 83 82 82 81 81 81 81 81 82 82 82 81 81 80 80 79 79 80 80 81 82 82 83 83 84 85 85 86 86 86 87 88 89 90 92 93 95 96 97 98 99 99 100 100 100 101 101 101 101 101 101 101 101 101 102 102 103 103 104 104 104 105 105 105 106 106 107 107 108 108 109 110 110 111 111 112 113 113
81 81 80 79 78 77 77 77 77 77 77 77 77 78 78 77 77 77 77 77 77 77 78 78 79 80 81 82 83 84 85 86 87 87 87 88 88 88 89 89 90 91 92 93 94 95 96 97 97 97 97 98 98 99 99 99 99 99 99 99 99 99 99 100 100 100 101 101 102 102 102 103 103 104 104 104 105 106 106 107 108 108 109 109 110
74 74 73 72 72 72 72 73 73 74 74 74 74 74 74 74 74 74 74 75 76 77 77 79 80 81 82 83 84 85 86 87 88 89 89 89 89 88 88 88 88 89 90 91 92 93 94 95 95 95 95 96 96 96 96 96 96 96 96 95 95 95 96 96 96 97 97 98 98 99 99 99 100 100 101 101 102 103 103 104 105 105 106 106 106
69 69 68 68 69 69 70 70 71 72 72 72 72 72 71 71 72 73 74 75 76 77 78 80 81 82 83 85 86 87 88 89 90 90 90 89 89 87 86 86 87 87 88 89 90 91 92 92 92 92 93 93 93 93 93 92 92 92 92 92 91 91 92 92 92 93 93 94 94 95 95 96 96 97 97 98 98 99 100 100 101 102 102 103 103
66 66 66 66 67 67 67 68 69 69 69 70 70 70 70 71 72 74 75 76 77 79 80 81 82 84 85 86 87 89 90 90 91 90 90 89 87 86 85 85 85 86 87 88 89 89 89 90 90 89 90 90 90 90 89 89 88 88 88 87 87 87 87 88 88 88 89 89 90 90 90 91 92 92 93 93 94 95 95 96 96 97 98 98 99
64 64 64 65 65 65 66 66 67 67 68 68 69 70 71 72 73 75 76 78 79 81 82 83 84 85 86 88 89 90 91 91 91 90 89 88 86 85 84 84 84 85 86 87 87 87 87 87 87 86 87 87 87 87 86 85 84 84 83 83 83 83 83 83 83 83 84 84 85 85 86 86 87 88 88 89 90 91 91 92 93 93 93 94 94
62 63 63 64 64 65 65 66 67 67 68 69 70 71 72 73 75 77 78 79 81 82 84 85 86 87 89 90 91 91 92 91 91 90 89 87 86 84 83 83 83 84 85 85 85 85 85 85 84 84 84 84 84 83 82 82 81 80 79 79 78 78 79 79 78 79 79 80 80 81 82 83 84 85 85 86 87 88 88 89 89 90 90 90 90
62 62 63 64 65 65 66 67 68 69 70 71 72 73 74 75 77 79 80 82 83 84 86 87 88 89 91 92 92 92 92 92 91 90 89 87 86 84 83 82 83 83 84 84 83 83 83 83 82 81 81 80 80 79 78 77 77 76 75 75 75 75 75 75 75 75 76 76 77 78 79 80 81 82 82 83 84 84 85 85 86 86 86 87 87
63 64 65 66 66 67 68 69 70 71 72 73 75 76 77 78 80 81 83 84 85 87 88 89 91 92 92 93 93 93 93 93 92 90 89 87 86 84 83 82 82 82 82 82 82 81 81 80 79 78 77 76 76 75 74 73 73 72 73 72 72 72 72 72 72 72 73 74 75 76 76 77 78 78 79 79 80 81 81 82 82 83 84 84 85
66 67 67 68 69 69 70 71 72 73 75 76 77 78 80 81 83 84 85 87 88 89 90 91 92 93 94 94 95 94 94 93 92 91 89 88 86 85 83 82 82 82 82 81 81 80 79 77 76 74 73 72 72 71 70 70 70 70 70 70 71 70 70 70 70 71 71 72 73 73 73 74 74 75 75 76 77 78 78 79 80 81 81 82 83
69 70 70 71 72 73 73 74 75 76 77 79 80 81 83 84 86 87 88 89 90 91 92 93 94 95 95 96 96 96 95 93 92 91 90 88 87 85 84 83 82 81 81 80 79 78 76 74 72 71 70 69 69 68 68 68 68 68 68 69 69 69 69 69 69 69 69 69 70 70 70 71 72 72 73 74 74 75 76 76 77 79 80 81 82
72 73 74 74 75 76 76 77 78 79 80 82 83 84 86 87 88 89 90 91 91 92 93 94 95 96 96 97 97 96 95 94 93 92 90 89 87 86 85 84 82 81 80 79 77 76 74 71 69 68 67 66 66 66 66 66 67 67 67 67 67 67 67 67 67 67 67 67 68 68 69 69 70 70 71 71 72 73 74 74 76 77 78 80 81
75 76 77 78 78 79 79 80 81 82 83 84 85 87 88 89 90 90 91 92 93 94 95 96 97 97 97 97 97 96 95 95 94 93 91 89 88 87 86 84 82 80 78 77 75 72 70 69 67 66 64 63 63 64 64 65 65 65 65 65 65 65 65 65 65 65 65 65 66 66 67 68 68 68 69 69 70 71 73 73 74 75 77 79 81
77 78 79 80 80 81 82 83 83 84 85 86 87 88 89 91 92 92 93 94 95 96 97 97 98 98 98 98 97 96 96 95 95 94 92 90 88 87 86 84 81 79 77 74 72 69 68 67 66 64 63 61 61 61 62 63 63 63 63 63 64 64 64 64 63 63 63 64 64 65 65 66 66 67 67 68 69 70 71 72 73 74 75 77 79
79 80 81 82 82 83 84 85 86 86 87 88 89 91 92 93 94 95 95 96 97 97 98 98 98 98 98 97 97 96 96 96 96 95 92 90 88 86 84 82 80 78 75 72 69 67 66 65 64 63 61 60 60 60 60 60 61 61 61 62 62 62 62 62 62 62 62 63 63 64 64 64 65 65 66 67 67 68 69 71 72 73 74 75 76
83 84 84 85 85 86 87 88 89 89 90 91 92 93 94 95 96 96 97 97 97 98 98 98 98 98 98 97 97 97 97 96 96 95 92 90 87 85 83 81 78 75 72 69 66 65 64 63 62 61 60 59 59 58 58 59 59 59 59 60 60 60 60 60 60 61 61 61 62 62 63 63 64 64 65 66 66 67 68 69 70 71 72 72 73
87 87 88 88 89 90 91 91 92 92 93 93 94 95 96 96 97 97 97 97 97 98 98 98 98 98 98 98 97 97 97 96 96 94 91 88 85 83 81 78 75 72 69 67 65 64 63 62 60 59 58 58 57 57 56 56 57 57 57 58 58 58 59 59 59 59 60 60 60 61 61 62 62 63 64 65 65 65 65 66 67 68 69 69 70
90 91 91 92 92 93 93 94 94 95 95 95 95 96 96 97 97 97 97 97 97 98 99 99 99 99 99 98 98 98 97 95 94 92 89 86 83 81 78 75 72 69 67 65 64 63 62 60 58 57 57 56 55 55 55 54 55 55 55 56 56 57 57 57 57 58 58 59 59 59 60 60 61 62 62 63 64 63 63 64 64 65 66 66 67
92 92 93 93 94 94 94 95 95 95 95 95 95 95 96 96 97 98 98 98 99 99 100 100 100 100 99 99 98 97 95 94 92 90 87 84 81 78 76 72 68 66 65 64 63 62 60 58 56 55 55 54 53 53 53 53 53 53 54 54 54 54 54 55 55 56 56 56 57 57 58 59 59 60 60 61 61 61 62 62 62 63 63 64 64
91 92 92 93 93 93 94 94 94 94 95 95 95 96 97 98 99 99 100 100 100 101 101 101 100 100 99 98 97 95 94 92 89 87 84 81 78 76 72 68 65 64 63 63 62 61 58 56 54 54 53 52 52 51 51 51 52 51 51 52 52 52 52 53 53 54 54 55 55 55 56 57 57 58 58 58 59 60 61 61 62 62 61 62 63
91 92 92 92 93 93 94 94 95 95 96 97 97 98 99 100 100 101 101 101 101 101 100 100 100 99 98 97 95 93 91 89 87 84 81 78 75 72 68 65 63 62 62 61 60 59 56 54 53 53 51 51 50 50 50 50 50 49 49 49 49 50 51 51 51 52 52 53 53 54 54 54 55 56 57 57 57 58 59 60 60 60 60 60 62
93 94 94 94 94 95 95 96 96 97 98 99 99 100 100 101 101 101 101 101 101 100 100 99 98 98 96 95 93 90 88 86 84 81 78 75 72 68 65 63 62 61 60 59 57 56 55 54 53 51 50 49 49 48 48 48 48 47 47 48 48 48 49 49 50 50 51 51 51 51 51 52 53 54 55 56 55 56 57 58 57 58 58 59 60
96 96 96 97 97 97 97 98 98 99 99 100 100 100 100 101 101 101 102 101 100 99 99 98 97 96 94 92 90 87 85 83 81 78 75 71 67 64 63 62 61 60 58 56 55 54 53 52 51 50 49 48 47 47 47 47 46 46 47 47 47 47 47 48 49 49 49 49 49 49 50 50 51 52 53 54 55 55 56 56 56 57 57 57 58
99 99 99 99 99 99 99 99 99 99 100 100 100 101 101 102 102 102 101 101 100 99 98 97 96 94 92 89 86 84 82 79 77 74 70 66 63 62 61 60 59 58 56 54 53 52 51 50 49 49 48 47 46 46 46 46 46 46 46 45 45 46 46 47 47 47 47 47 47 48 48 49 49 50 51 52 54 54 54 54 55 56 56 55 55
100 100 100 100 99 99 100 100 100 100 100 100 101 101 101 102 102 102 101 100 99 98 96 95 93 91 88 84 82 80 77 75 72 69 65 63 61 60 59 58 57 55 53 52 51 50 48 48 47 47 46 45 45 45 45 45 45 45 44 44 44 44 44 44 45 45 46 46 46 46 47 48 48 49 50 51 52 53 52 52 52 54 54 53 52
100 100 100 100 100 100 100 100 100 101 101 101 101 101 102 102 102 101 100 98 97 95 93 91 89 86 83 80 77 75 72 69 67 64 62 61 60 58 57 55 54 52 51 50 49 47 46 46 45 45 45 45 45 44 44 44 43 43 43 42 42 42 42 42 43 44 45 45 45 46 46 47 47 47 48 49 50 50 50 50 50 51 52 51 50
100 100 100 100 100 100 101 101 101 101 101 101 101 101 101 101 100 99 97 95 93 91 89 86 84 80 77 75 72 70 67 65 63 62 60 59 57 56 54 52 51 49 48 48 46 45 45 44 44 44 43 43 43 43 43 42 42 42 41 41 40 40 40 41 43 43 44 44 45 45 45 46 46 47 47 47 47 47 48 48 48 48 49 49 48
100 100 100 100 100 100 100 100 100 100 99 99 99 99 98 98 96 94 92 90 88 86 83 80 77 74 71 70 68 65 63 62 61 60 58 56 55 53 51 50 48 46 46 45 44 44 43 43 43 43 42 42 42 42 42 42 41 40 40 40 39 39 40 41 43 43 43 44 44 44 44 44 44 45 45 44 44 44 45 45 45 45 45 46 46
98 98 98 98 98 98 98 97 97 96 96 95 95 95 94 93 91 88 86 84 82 79 77 74 71 69 67 66 64 62 61 60 58 57 55 53 52 50 49 47 45 44 43 43 42 42 42 42 42 41 41 41 41 41 41 40 40 39 39 39 39 39 40 41 41 42 42 43 42 42 43 42 42 42 42 42 42 42 42 42 42 42 42 42 42
94 94 94 93 93 93 92 92 92 91 90 90 89 88 87 86 84 81 80 78 76 74 71 69 67 66 64 63 62 60 58 57 55 54 52 51 49 47 46 44 43 42 41 40 40 40 40 40 40 40 40 40 39 39 39 39 39 38 38 38 38 39 39 39 40 40 41 41 40 40 40 40 40 39 39 39 40 40 39 39 39 39 39 38 38
88 88 88 88 88 87 87 86 86 85 85 84 83 82 81 79 77 76 74 73 71 69 68 66 64 63 62 61 59 57 55 53 52 50 49 48 46 45 44 42 41 40 39 39 39 39 38 39 39 38 38 38 37 37 38 38 37 37 37 37 37 37 38 38 38 39 39 39 38 38 37 37 37 37 37 37 37 37 36 36 36 36 36 36 36
83 83 83 83 83 82 82 82 81 80 80 79 78 77 75 74 72 71 70 69 67 66 64 63 62 61 59 58 56 54 52 50 49 48 46 45 44 42 41 40 39 38 38 38 37 37 36 37 37 36 36 36 36 36 36 36 36 35 36 36 36 36 36 37 36 36 36 36 35 35 34 34 34 34 34 34 34 33 33 33 32 32 33 33 34
80 79 79 79 79 78 78 77 76 76 75 74 73 72 70 69 68 67 66 65 64 63 62 60 59 58 56 54 53 51 49 47 46 45 44 42 41 40 39 39 38 37 37 36 36 35 35 35 35 35 35 35 35 34 34 34 34 34 34 34 34 34 34 34 34 33 33 33 33 32 32 32 31 31 31 31 30 30 29 29 30 30 31 33 34
76 76 75 75 75 74 74 73 72 72 71 70 70 68 67 65 65 64 63 62 61 60 59 57 56 55 53 52 50 48 46 45 44 43 42 40 39 39 38 37 36 36 35 35 34 34 34 33 33 33 34 33 33 33 33 33 33 33 33 33 33 33 32 32 31 30 30 30 29 29 29 29 28 28 27 27 26 26 26 27 28 30 32 34 37
73 73 72 72 72 71 71 70 70 69 68 67 67 65 64 63 62 61 60 59 58 57 56 55 53 52 51 49 47 46 44 43 42 41 39 38 38 37 36 35 35 35 34 34 33 32 32 32 32 32 32 32 31 31 31 31 31 32 32 32 32 31 30 28 28 27 27 26 26 26 26 25 25 24 23 23 23 23 24 26 28 30 33 36 39
70 70 70 69 69 69 68 68 67 66 65 65 64 62 61 60 59 58 57 56 55 54 53 52 51 50 49 47 45 44 42 41 40 39 38 37 36 35 35 34 34 34 33 32 32 31 30 30 30 30 30 30 30 29 29 30 30 30 30 30 29 28 26 25 24 24 24 23 23 22 22 22 21 20 20 20 21 22 24 27 29 32 35 37 40
67 67 66 66 66 65 65 64 63 63 62 61 60 59 58 57 56 55 54 54 53 52 51 50 49 48 46 45 43 42 40 39 38 37 37 36 35 34 33 33 33 32 32 31 30 29 29 28 28 28 28 28 28 27 28 28 28 28 28 28 26 24 23 22 21 21 21 20 19 19 18 17 17 17 17 19 21 23 26 29 32 35 37 40 42
63 63 62 62 62 61 61 60 60 59 58 58 57 56 55 53 53 52 52 51 50 49 48 47 47 46 44 43 41 40 38 38 37 36 35 34 33 33 32 32 32 31 30 29 28 28 27 27 26 26 26 26 26 26 26 26 26 26 26 24 22 21 20 19 18 18 17 16 16 15 14 13 14 15 17 19 22 25 29 32 34 37 40 42 44
59 59 58 58 58 57 57 56 56 55 55 54 53 52 51 50 49 49 49 48 47 47 46 46 45 44 42 41 39 38 37 37 36 36 34 33 33 32 32 31 30 30 29 28 27 26 25 25 25 25 24 24 24 24 24 24 24 23 22 20 18 17 17 16 15 14 13 12 12 11 10 11 13 16 18 22 25 28 30 33 35 38 40 42 45
Wind_Direction
271 272 272 272 272 272 272 272 272 272 272 272 273 273 273 273 273 273 273 273 273 274 274 274 275 275 275 276 276 276 277 277 277 277 277 277 277 277 277 276 276 276 275 275 274 274 274 273 273 273 273 272 272 272 271 271 271 271 271 271 271 271 271 271 271 271 271 271 271 271 271 272 272 272 273 273 274 274 275 275 276 276 277 277 277
271 271 272 272 272 272 272 272 273 273 273 273 273 273 273 273 273 274 274 274 274 274 275 275 276 276 276 277 277 277 278 278 278 278 278 278 278 278 278 277 277 276 276 275 275 274 274 274 273 273 273 272 272 272 272 272 271 271 271 271 271 271 271 271 271 271 271 271 272 272 272 273 273 273 274 274 274 274 275 275 276 276 276 277 277
271 271 272 272 272 272 272 272 272 272 273 273 273 273 273 274 274 274 274 275 275 276 276 277 277 277 278 278 278 278 278 279 279 279 279 279 279 279 278 278 278 277 277 276 276 275 275 274 274 273 273 273 273 272 272 272 272 272 271 271 271 271 271 271 272 272 272 272 273 273 273 274 274 274 274 275 275 275 275 275 276 276 276 277 277
270 271 271 271 272 272 272 272 272 273 273 273 274 274 274 275 275 275 276 276 277 277 278 278 278 278 279 279 279 279 279 279 279 279 279 279 279 279 279 278 278 278 277 277 276 276 275 275 275 274 274 273 273 273 273 272 272 272 272 272 272 272 272 272 272 273 273 273 273 273 274 274 274 274 274 275 275 275 275 275 276 276 276 276 276
270 270 271 272 272 272 273 273 274 274 274 275 275 275 276 276 276 277 277 278 278 278 278 279 279 279 279 279 279 279 280 280 280 280 280 280 279 279 279 278 278 278 277 277 277 276 276 275 275 275 274 274 274 273 273 273 273 273 273 273 273 273 273 273 273 273 273 273 274 274 274 274 274 274 274 274 274 275 275 275 275 275 275 276 276
271 271 272 272 273 273 274 275 275 276 276 276 277 277 277 278 278 278 278 278 279 279 279 279 279 279 279 280 280 280 280 280 281 281 280 280 280 279 279 279 278 278 278 278 277 277 277 276 276 276 275 275 274 274 274 274 273 273 273 273 274 274 274 274 274 274 274 274 274 274 274 274 274 274 274 274 274 274 274 274 275 275 275 275 275
272 273 273 274 274 275 275 276 277 277 278 278 278 278 279 279 279 279 279 279 279 279 279 279 279 280 280 280 281 281 281 281 281 281 281 280 280 280 280 280 280 279 279 279 279 279 278 278 278 277 277 276 276 275 275 275 275 275 275 275 275 275 275 274 274 274 274 274 274 274 274 274 274 274 274 274 274 274 274 274 274 274 274 275 275
274 274 275 275 276 276 277 277 278 278 279 279 279 278 279 278 278 279 279 279 279 279 280 280 280 281 281 281 281 281 282 281 281 281 281 281 281 281 281 281 281 281 281 281 280 280 280 279 279 278 278 278 277 277 277 277 277 277 277 277 276 276 276 275 275 275 275 274 274 274 274 274 274 274 274 274 274 274 274 274 274 274 274 275 275
276 276 276 276 277 277 277 278 278 278 278 279 279 279 279 279 279 279 279 279 280 280 280 281 281 281 282 282 282 282 282 282 282 282 282 282 282 282 282 282 282 282 282 282 281 281 281 280 280 279 279 279 279 279 279 279 279 278 278 278 278 277 277 277 276 276 276 275 275 274 274 274 274 274 274 274 274 274 274 274 274 274 274 274 275
276 277 277 277 277 277 277 277 278 278 278 278 278 279 279 279 279 279 279 280 280 281 281 281 281 281 282 282 282 282 282 282 282 282 282 283 283 283 283 283 283 283 283 283 282 282 282 281 281 281 281 281 280 280 280 280 280 280 279 279 279 279 278 278 277 277 276 276 276 275 275 275 275 275 274 274 274 274 274 274 274 274 275 275 275
276 277 277 277 277 277 277 277 277 278 278 278 278 278 278 279 279 279 280 280 280 281 281 281 281 281 281 282 282 282 282 282 283 283 283 283 284 284 284 284 284 284 284 284 283 283 283 282 282 282 282 282 282 281 281 281 281 280 280 280 279 279 279 278 278 277 277 276 276 276 275 275 275 275 275 275 275 275 275 275 275 275 275 275 275
276 277 277 277 277 277 277 277 277 277 277 277 277 278 278 278 279 279 280 280 280 280 281 281 281 281 282 282 282 283 283 283 284 284 284 285 285 285 286 286 286 285 285 285 284 284 283 283 283 283 283 283 282 282 282 281 281 281 280 280 280 279 279 278 278 277 277 277 276 276 276 276 275 275 275 275 275 275 275 275 275 275 275 275 276
277 277 277 277 277 277 277 277 277 277 277 277 278 278 278 278 279 279 279 280 280 280 281 281 281 282 282 283 283 284 284 285 285 286 286 286 287 287 287 286 286 286 285 285 285 284 284 284 284 284 283 283 283 282 282 282 281 281 280 280 279 279 278 278 277 277 277 276 276 276 276 276 275 275 275 275 275 275 275 276 276 276 276 276 276
277 277 277 277 277 277 277 277 277 277 277 278 278 278 278 278 279 279 279 280 280 281 281 282 282 282 283 284 285 285 286 287 287 287 288 288 288 287 287 287 287 287 286 286 286 286 285 285 284 284 284 284 283 283 282 282 281 281 280 280 279 279 278 278 277 277 277 277 276 276 276 276 276 276 276 276 276 276 276 276 276 276 277 277 277
277 277 277 277 277 277 277 277 277 277 277 277 278 278 278 279 279 280 280 281 281 282 282 283 283 284 285 286 286 287 288 288 288 288 289 289 289 289 289 289 288 288 288 288 287 287 286 286 285 285 285 284 284 283 283 282 282 281 281 280 280 279 278 278 277 277 277 276 276 276 276 276 276 276 276 276 276 277 277 277 277 277 277 277 277
278 278 277 277 277 276 276 276 276 277 277 277 278 278 279 280 280 281 281 282 282 283 284 284 285 286 287 287 288 288 289 289 289 289 290 290 290 290 290 290 290 290 290 289 288 288 287 287 286 286 285 285 284 284 283 283 282 282 281 281 280 279 279 278 278 277 277 277 277 277 277 277 277 277 277 277 277 277 277 278 278 278 278 279 279
277 277 277 276 276 276 276 276 276 277 277 278 279 280 280 281 282 282 283 283 284 285 285 286 287 287 288 288 289 289 289 290 290 290 291 291 291 292 292 292 292 292 291 290 290 289 289 288 288 287 287 286 286 285 284 284 283 282 282 281 281 280 279 279 278 278 277 277 277 277 277 277 277 277 277 277 277 277 278 278 278 278 279 279 280
277 277 277 276 276 276 277 277 277 278 279 280 280 281 282 282 283 284 284 285 286 286 287 287 288 288 289 289 290 290 291 291 292 292 292 293 293 294 294 294 294 294 293 292 291 291 290 289 289 289 288 287 287 286 285 284 284 283 282 281 281 280 280 279 279 278 278 278 278 278 277 277 277 277 277 277 277 278 278 278 279 279 280 280 281
277 277 277 277 278 278 278 279 280 280 281 282 282 283 283 284 284 285 285 286 286 287 288 288 289 290 290 291 291 292 292 293 293 294 294 295 295 295 295 296 296 295 295 294 293 292 291 291 290 290 289 288 287 286 286 285 284 283 283 282 281 280 280 279 279 279 278 278 277 277 277 277 277 277 277 278 278 279 279 280 280 280 281 281 282
279 279 279 279 279 280 281 281 282 283 283 284 284 284 285 285 286 286 286 287 288 288 289 290 291 291 292 293 293 293 294 294 295 295 296 296 296 297 297 298 298 297 296 295 294 293 292 292 291 290 289 288 287 286 286 285 285 284 283 283 282 281 280 280 279 278 278 277 277 277 277 277 278 278 279 279 280 280 281 281 282 282 282 283 283
280 280 281 281 282 282 283 283 284 284 284 284 285 285 286 286 286 287 287 288 289 290 291 292 292 293 293 294 294 295 295 296 296 297 297 297 298 298 299 300 299 298 297 296 295 294 293 292 291 290 289 288 288 287 286 286 285 285 284 283 282 281 281 280 279 278 278 277 277 278 278 279 279 280 280 280 281 281 281 282 282 283 283 284 284
282 282 282 283 283 283 284 284 284 285 285 285 286 286 286 287 287 288 289 290 290 291 292 293 293 294 294 294 295 295 296 296 297 298 298 298 299 300 301 301 301 299 298 297 295 294 293 292 291 291 290 289 288 287 287 286 285 285 284 283 282 282 281 280 280 279 279 279 279 279 280 280 280 281 281 281 282 282 283 283 284 284 285 285 285
283 283 283 284 284 284 284 285 285 285 286 286 286 287 287 288 289 289 290 291 291 292 293 293 294 294 294 295 295 296 297 297 298 298 299 300 301 302 303 302 301 300 299 297 296 295 294 293 292 291 290 289 289 288 287 286 285 285 284 283 282 282 281 281 281 280 280 280 280 280 281 281 281 282 282 283 283 284 284 285 286 286 286 287 287
283 284 284 284 284 285 285 286 286 286 286 287 287 288 288 289 289 290 290 291 292 293 293 293 294 294 295 295 296 297 297 298 299 299 300 301 303 303 304 303 301 300 299 298 296 295 294 294 293 292 291 290 289 288 287 287 286 285 284 283 282 282 282 281 281 281 281 281 281 281 282 282 282 283 283 284 284 285 286 286 287 287 288 288 288
284 284 284 284 285 285 286 286 286 286 287 287 287 288 288 289 290 290 291 292 292 293 293 294 294 294 295 296 296 297 298 299 299 300 301 302 304 304 303 302 301 300 299 298 297 296 295 295 294 293 291 290 289 289 288 287 286 285 284 283 283 282 282 281 281 282 282 282 282 282 283 283 283 284 285 285 286 286 287 287 288 288 288 289 289
284 284 284 285 285 285 286 286 286 286 287 287 288 288 289 289 290 291 291 292 293 293 293 294 294 295 295 296 297 297 298 299 300 300 302 303 304 303 303 301 300 300 299 298 297 296 296 295 294 293 292 290 289 288 287 287 286 285 284 284 284 283 283 283 283 283 283 283 284 284 284 285 285 286 287 287 288 288 289 289 289 289 290 290 290
284 284 284 285 285 285 285 286 286 286 287 287 288 289 289 290 290 291 292 292 293 293 293 294 294 295 295 296 297 298 298 299 300 301 302 303 303 303 302 301 300 300 299 298 297 297 296 295 294 292 291 290 289 288 287 286 286 285 285 285 285 285 285 285 285 285 285 285 285 286 286 287 288 288 288 289 289 290 290 291 291 292 292 292 293
283 283 284 284 284 285 285 286 286 286 287 288 288 289 290 290 291 291 292 292 292 293 293 293 294 295 295 296 297 298 298 299 299 300 301 302 302 302 301 300 300 299 298 298 298 297 296 294 293 292 291 290 289 288 287 287 286 286 286 286 286 286 286 286 286 286 287 287 288 288 289 289 290 290 290 290 291 291 292 292 293 293 293 294 294
283 284 284 284 285 285 285 286 286 287 288 288 289 289 290 290 291 291 291 292 292 293 293 293 294 294 295 296 297 297 298 298 299 300 300 301 301 301 300 300 299 299 298 298 297 296 295 293 292 291 291 290 289 288 288 287 287 286 286 286 286 286 286 287 287 288 288 289 289 289 290 290 291 291 291 292 292 293 293 293 293 293 294 294 295
283 284 284 284 285 285 286 286 287 287 288 288 289 289 290 290 291 291 291 292 292 292 293 293 294 294 295 295 296 296 297 297 298 299 300 300 300 300 300 299 299 299 299 298 296 295 293 292 292 291 291 290 290 289 288 287 287 286 286 286 286 287 287 288 288 288 289 289 290 290 291 291 292 292 293 293 294 294 294 293 293 293 294 294 295
283 283 284 284 285 285 286 286 287 287 288 288 289 289 290 290 290 291 291 291 291 292 292 292 293 293 294 294 295 295 296 297 298 298 299 299 299 299 299 299 299 299 298 297 295 294 293 292 292 291 291 290 289 289 288 288 287 287 287 288 288 288 288 288 288 289 289 290 291 292 292 293 293 294 294 295 295 295 294 294 294 295 295 296 297
283 283 283 284 284 285 285 286 287 287 288 288 289 289 289 289 290 290 290 290 290 291 291 291 292 292 293 293 294 295 296 297 297 298 298 299 299 299 299 299 299 298 297 295 294 293 292 292 291 291 290 289 289 289 289 288 288 288 289 289 289 289 289 289 289 290 291 292 292 293 294 295 296 296 295 295 296 296 296 296 297 297 299 300 301
283 283 283 284 284 285 285 286 286 287 287 288 288 288 288 288 288 289 289 289 289 290 290 291 291 292 292 293 294 295 296 296 297 297 297 298 298 298 298 298 298 296 295 294 293 292 292 291 290 290 290 289 289 289 289 289 289 290 290 290 290 289 290 290 290 291 292 293 294 295 296 297 297 296 296 296 297 297 297 298 299 301 303 304 304
282 283 283 283 284 284 285 285 286 286 287 287 287 287 287 287 287 288 288 288 289 289 290 290 291 291 292 293 294 295 295 296 296 296 297 297 297 298 298 297 296 294 293 293 292 291 290 290 290 290 290 289 289 289 289 290 290 290 289 289 289 290 291 292 293 293 294 295 297 298 298 298 297 297 297 298 299 299 299 300 302 304 305 305 304
283 283 283 284 284 284 285 285 285 286 286 286 286 286 286 287 287 287 287 288 288 289 289 290 291 291 292 293 294 294 295 295 295 295 296 296 297 297 297 295 294 293 292 291 289 288 289 290 290 290 290 289 289 290 290 290 290 290 290 291 292 293 294 295 296 297 298 298 299 298 298 297 297 298 299 300 301 301 302 304 306 306 305 305 304
283 283 284 284 284 284 284 285 285 285 285 285 285 286 286 286 286 287 287 287 288 289 289 290 290 291 292 293 293 294 294 294 294 295 295 296 296 296 295 293 292 292 291 289 288 288 289 290 289 289 290 290 290 290 290 290 291 291 292 294 294 295 297 297 298 299 299 299 298 297 297 298 299 301 302 302 303 304 305 307 307 305 304 305 306
283 283 283 283 284 284 284 284 284 284 284 285 285 285 286 286 286 286 287 287 288 288 289 289 290 291 292 292 293 293 293 293 293 294 295 295 295 294 293 292 291 290 288 287 287 288 289 289 289 289 289 289 289 289 290 291 292 293 294 295 296 297 298 299 299 299 298 298 298 298 299 301 302 303 304 304 304 306 307 307 306 304 305 307 308
282 282 283 283 283 283 283 283 283 284 284 284 285 285 285 285 285 286 286 287 287 288 289 289 290 291 292 292 292 292 292 293 293 293 294 294 293 292 291 290 289 287 286 286 287 288 289 288 288 288 288 288 289 290 291 292 292 293 295 296 297 298 299 299 298 298 298 298 300 301 302 303 304 305 305 305 306 307 307 306 306 306 308 309 310
282 282 282 282 282 282 283 283 283 283 283 284 284 284 284 284 285 285 286 287 287 288 288 289 290 291 291 292 292 292 292 292 292 293 293 292 292 290 289 288 286 285 285 286 287 288 288 288 287 287 287 288 289 290 290 291 293 294 296 297 298 299 300 299 299 299 299 301 302 303 304 305 306 306 306 307 308 308 307 307 308 309 310 310 311
281 281 281 281 281 281 281 282 282 282 282 282 283 283 283 284 284 285 286 287 287 288 288 289 290 291 291 291 291 291 292 292 292 292 291 291 289 288 287 286 285 284 285 286 287 287 287 286 286 287 288 288 289 290 291 292 294 295 297 298 299 299 300 299 299 300 301 302 303 304 306 307 308 308 308 309 308 308 308 309 310 311 311 312 314
280 280 280 280 281 281 281 281 281 281 282 282 282 283 283 284 285 285 286 287 287 288 289 289 290 291 291 291 291 291 291 291 291 290 289 288 287 286 285 284 283 283 284 286 286 286 285 286 286 287 288 288 289 291 292 294 295 296 297 298 299 299 299 299 300 301 302 303 305 307 308 309 309 309 309 309 309 309 310 311 312 313 314 316 317
280 280 280 281 281 281 281 281 281 282 282 282 282 283 283 284 285 286 287 287 288 288 289 290 290 290 290 290 290 290 290 290 289 288 287 286 285 284 283 282 282 283 284 285 284 284 284 285 285 286 287 288 290 291 292 293 294 295 297 298 298 298 299 300 301 302 303 305 307 309 310 311 310 309 309 310 311 312 313 314 315 317 318 320 322
281 281 281 281 281 281 282 282 282 282 282 283 283 283 284 285 286 287 287 288 288 289 289 290 290 290 290 289 289 289 288 288 286 285 284 284 283 282 281 281 282 283 283 282 282 283 284 284 284 286 287 288 289 290 290 291 293 295 296 296 298 299 299 300 302 303 305 308 310 311 311 311 310 310 311 312 313 314 316 317 319 321 323 326 328
282 282 282 282 282 282 282 282 283 283 283 283 284 284 285 286 287 287 287 288 288 289 289 289 289 289 288 288 288 287 286 285 283 283 282 281 281 280 280 280 281 281 281 281 282 282 282 283 284 285 287 287 287 288 289 291 293 294 295 297 298 299 300 302 304 307 309 310 311 312 311 311 311 312 313 314 315 317 320 322 324 327 329 331 332
283 283 283 283 283 283 283 284 284 284 284 284 285 285 286 287 287 287 287 288 288 288 288 288 287 287 286 286 285 284 283 282 281 281 280 279 278 278 278 279 280 280 281 281 281 281 281 282 284 285 285 286 287 289 291 292 293 295 296 298 298 299 301 304 307 310 312 312 312 311 312 312 313 314 315 317 319 322 325 329 332 333 334 335 336
284 284 284 284 284 284 284 284 285 285 285 285 286 286 287 287 287 287 287 287 287 287 286 286 285 285 284 283 283 282 281 280 279 278 278 277 277 277 277 278 279 279 279 279 280 280 281 283 283 284 285 287 289 291 292 293 294 295 296 297 299 301 303 307 310 313 313 312 311 311 313 313 314 316 318 322 325 329 333 336 338 339 340 341 342
285 285 285 285 285 285 285 285 285 285 285 286 286 286 286 286 286 286 286 285 285 285 284 283 283 282 282 281 281 280 279 278 277 276 276 275 275 276 276 277 277 277 277 278 279 280 281 282 283 284 286 288 289 291 291 292 294 295 296 298 300 302 307 311 313 313 311 310 311 313 314 315 317 321 325 330 335 339 342 343 344 345 346 347 346
285 285 285 285 285 285 285 284 284 284 285 285 285 285 285 285 284 284 284 283 283 282 282 281 281 280 280 279 279 278 277 276 275 275 274 274 275 275 275 275 276 276 276 277 278 279 280 282 283 285 287 288 289 290 291 292 293 294 296 298 301 305 311 314 313 311 310 311 312 315 316 318 323 329 335 341 347 348 349 350 350 350 350 349 348
284 284 284 283 283 283 283 283 283 283 283 283 283 283 283 283 282 282 281 280 280 279 279 279 278 278 277 277 277 277 276 275 274 274 273 274 274 274 274 274 275 275 275 276 278 279 280 281 283 285 286 287 288 289 290 291 292 293 295 299 304 310 313 313 310 309 310 313 315 318 321 326 333 342 349 354 356 356 356 356 354 352 351 350 348
282 282 282 281 281 281 281 281 281 281 281 281 281 281 281 280 280 279 279 278 278 277 277 276 276 276 276 276 276 276 275 274 273 273 273 274 274 273 273 273 274 274 275 276 278 279 280 281 283 284 284 285 286 287 288 289 291 293 296 302 309 312 310 308 307 310 313 317 319 324 330 340 351 359 2 3 3 2 0 358 356 353 351 349 347
281 281 281 280 280 280 280 280 280 280 280 280 279 279 279 278 277 277 276 276 276 275 275 275 275 275 275 275 275 274 273 273 273 273 273 273 273 272 272 272 273 274 275 276 277 279 280 281 282 282 282 283 284 284 285 287 289 292 298 305 309 307 303 304 308 313 318 322 326 334 349 3 10 12 11 10 8 5 1 357 354 352 350 348 346
Height
10376 10375 10374 10372 10371 10370 10369 10368 10367 10366 10365 10364 10363 10361 10360 10358 10357 10355 10353 10352 10350 10348 10346 10344 10342 10339 10337 10335 10333 10330 10328 10326 10324 10322 10320 10318 10316 10314 10312 10310 10308 10306 10304 10301 10299 10297 10295 10293 10290 10288 10286 10284 10282 10279 10277 10274 10272 10270 10267 10265 10263 10261 10259 10258 10256 10255 10254 10252 10250 10249 10247 10245 10243 10241 10240 10239 10236 10233 10230 10228 10226 10223 10220 10217 10214
10365 10364 10363 10362 10360 10359 10358 10357 10356 10355 10354 10352 10351 10350 10348 10347 10345 10343 10341 10339 10337 10335 10333 10331 10328 10326 10324 10321 10319 10316 10314 10312 10310 10308 10305 10303 10301 10299 10297 10295 10293 10291 10289 10287 10284 10282 10280 10278 10276 10273 10271 10269 10267 10264 10262 10259 10257 10254 10252 10250 10247 10245 10243 10241 10240 10238 10237 10235 10234 10233 10231 10229 10227 10225 10224 10222 10220 10217 10215 10212 10209 10206 10204 10201 10198
10354 10353 10352 10351 10349 10348 10347 10346 10344 10343 10341 10340 10339 10338 10336 10335 10333 10331 10328 10326 10324 10322 10320 10317 10314 10312 10310 10307 10304 10302 10300 10298 10296 10294 10291 10289 10287 10285 10282 10280 10278 10275 10273 10272 10269 10267 10265 10263 10261 10258 10256 10254 10252 10249 10247 10244 10241 10239 10237 10234 10232 10230 10227 10225 10223 10222 10221 10219 10218 10216 10214 10213 10211 10209 10207 10204 10202 10200 10198 10195 10192 10190 10187 10184 10181
10344 10343 10341 10339 10337 10336 10335 10334 10332 10331 10329 10328 10327 10325 10324 10322 10320 10318 10316 10313 10311 10309 10306 10304 10301 10298 10295 10292 10290 10287 10285 10283 10281 10280 10278 10275 10273 10270 10268 10265 10263 10260 10258 10256 10254 10252 10250 10247 10245 10243 10241 10239 10236 10233 10231 10229 10226 10223 10220 10218 10216 10214 10212 10210 10208 10206 10205 10203 10201 10200 10198 10196 10194 10192 10189 10187 10185 10183 10180 10178 10175 10172 10170 10167 10163
10333 10332 10330 10328 10326 10324 10323 10322 10321 10319 10318 10316 10315 10313 10311 10310 10308 10305 10303 10300 10298 10295 10292 10290 10287 10284 10281 10278 10276 10274 10271 10269 10267 10265 10263 10261 10258 10256 10253 10251 10248 10246 10243 10241 10239 10237 10234 10232 10229 10227 10225 10223 10220 10217 10215 10212 10210 10207 10204 10202 10200 10197 10196 10194 10192 10190 10188 10186 10184 10182 10180 10179 10177 10174 10172 10170 10168 10165 10163 10160 10157 10155 10153 10150 10146
10322 10320 10318 10316 10314 10313 10312 10310 10309 10308 10306 10304 10303 10300 10298 10297 10295 10292 10290 10287 10284 10281 10279 10276 10273 10270 10267 10265 10262 10260 10258 10255 10253 10251 10249 10246 10244 10241 10239 10237 10234 10232 10229 10227 10224 10222 10220 10217 10214 10211 10209 10206 10204 10201 10199 10196 10194 10191 10189 10186 10184 10182 10180 10178 10176 10173 10171 10170 10168 10165 10163 10161 10159 10157 10155 10153 10150 10148 10146 10143 10140 10137 10135 10133 10130
10311 10309 10307 10305 10303 10301 10300 10298 10297 10295 10293 10292 10290 10288 10286 10284 10281 10279 10276 10274 10271 10268 10266 10263 10261 10257 10254 10252 10249 10247 10244 10241 10239 10237 10235 10232 10230 10228 10225 10223 10221 10218 10216 10213 10211 10208 10205 10202 10199 10196 10193 10190 10188 10186 10183 10181 10178 10176 10173 10171 10168 10166 10164 10162 10160 10158 10156 10153 10151 10149 10146 10144 10142 10139 10138 10135 10133 10131 10129 10126 10123 10119 10117 10116 10113
10299 10297 10295 10293 10291 10289 10288 10286 10285 10283 10281 10279 10278 10276 10274 10271 10269 10266 10264 10261 10258 10256 10253 10250 10247 10244 10241 10238 10236 10233 10230 10228 10225 10223 10221 10219 10217 10215 10213 10211 10209 10206 10203 10201 10198 10195 10192 10189 10185 10181 10178 10175 10173 10170 10168 10165 10163 10160 10158 10155 10153 10150 10148 10146 10144 10142 10140 10138 10135 10133 10130 10127 10125 10123 10121 10119 10117 10115 10112 10109 10106 10103 10102 10099 10097
10287 10285 10283 10280 10279 10277 10276 10275 10273 10271 10269 10267 10265 10263 10261 10259 10257 10254 10251 10248 10246 10243 10240 10237 10234 10231 10228 10225 10222 10220 10217 10215 10213 10211 10209 10207 10205 10204 10202 10199 10197 10194 10191 10188 10185 10182 10178 10175 10171 10167 10164 10161 10158 10155 10153 10150 10147 10145 10142 10139 10137 10134 10132 10130 10128 10126 10124 10121 10119 10116 10114 10111 10109 10106 10104 10103 10101 10098 10094 10091 10089 10087 10086 10084 10082
10274 10272 10270 10268 10267 10265 10264 10263 10261 10259 10257 10255 10253 10251 10249 10247 10244 10242 10239 10235 10233 10230 10228 10224 10221 10218 10215 10212 10210 10208 10205 10203 10201 10199 10198 10196 10194 10193 10190 10188 10185 10182 10179 10175 10172 10168 10164 10160 10156 10153 10149 10146 10143 10140 10137 10134 10131 10129 10126 10124 10121 10118 10116 10113 10111 10109 10107 10104 10102 10100 10097 10095 10093 10090 10088 10086 10084 10081 10078 10075 10073 10071 10069 10067 10066
10262 10260 10258 10256 10255 10253 10252 10251 10249 10248 10246 10243 10241 10239 10236 10234 10231 10229 10226 10223 10220 10218 10215 10212 10209 10206 10203 10201 10199 10197 10194 10192 10191 10189 10187 10185 10183 10181 10179 10176 10173 10169 10165 10161 10157 10153 10149 10145 10141 10138 10134 10131 10127 10124 10121 10119 10116 10113 10111 10108 10105 10102 10100 10097 10095 10092 10090 10088 10085 10083 10081 10079 10077 10074 10071 10069 10067 10064 10061 10059 10057 10054 10052 10050 10048
10249 10248 10246 10244 10243 10241 10240 10238 10237 10235 10233 10231 10229 10227 10224 10222 10219 10216 10214 10211 10208 10206 10203 10201 10198 10196 10193 10190 10188 10186 10184 10182 10180 10178 10176 10174 10172 10170 10167 10164 10160 10156 10152 10148 10143 10139 10135 10130 10126 10123 10119 10115 10112 10109 10105 10103 10100 10097 10095 10092 10090 10087 10084 10081 10079 10076 10073 10071 10069 10067 10065 10062 10060 10058 10055 10053 10050 10047 10045 10042 10040 10038 10036 10034 10032
10237 10235 10233 10232 10231 10229 10227 10226 10224 10222 10221 10219 10217 10215 10213 10210 10208 10205 10202 10200 10198 10195 10193 10191 10188 10186 10183 10180 10178 10175 10173 10171 10168 10166 10165 10163 10160 10158 10155 10152 10148 10143 10138 10134 10129 10124 10120 10116 10111 10108 10104 10100 10097 10093 10090 10087 10084 10082 10079 10077 10074 10071 10068 10065 10063 10060 10057 10055 10053 10051 10049 10046 10044 10041 10039 10037 10034 10032 10029 10027 10025 10022 10020 10018 10017
10224 10223 10221 10220 10219 10217 10215 10214 10212 10210 10209 10207 10205 10203 10201 10199 10197 10194 10192 10190 10187 10185 10183 10180 10178 10175 10173 10170 10167 10165 10162 10159 10157 10155 10153 10150 10148 10145 10142 10139 10135 10130 10125 10120 10115 10110 10106 10101 10097 10093 10089 10085 10081 10078 10075 10072 10069 10066 10063 10061 10058 10056 10053 10050 10047 10045 10042 10039 10037 10035 10033 10031 10028 10026 10024 10022 10019 10017 10015 10012 10009 10007 10004 10003 10002
10212 10211 10210 10209 10208 10206 10205 10203 10201 10200 10198 10196 10194 10193 10191 10189 10187 10185 10182 10180 10177 10175 10173 10170 10167 10165 10162 10160 10157 10154 10151 10148 10145 10143 10140 10138 10135 10132 10129 10125 10121 10116 10111 10106 10101 10096 10091 10087 10082 10078 10075 10070 10066 10063 10060 10056 10053 10050 10048 10045 10043 10040 10037 10035 10032 10030 10027 10024 10022 10020 10018 10016 10013 10011 10008 10007 10005 10002 10000 9997 9995 9992 9989 9987 9986
10201 10200 10200 10199 10198 10196 10195 10194 10192 10190 10188 10186 10185 10183 10182 10180 10177 10175 10173 10170 10167 10165 10163 10160 10157 10154 10152 10149 10146 10143 10140 10137 10134 10130 10128 10125 10122 10119 10116 10112 10107 10102 10097 10092 10087 10082 10077 10072 10068 10064 10060 10055 10051 10048 10045 10042 10039 10035 10032 10030 10028 10025 10023 10020 10018 10015 10012 10010 10008 10006 10004 10001 9999 9997 9994 9992 9991 9988 9985 9983 9980 9978 9974 9972 9970
10191 10191 10190 10189 10188 10187 10186 10184 10183 10181 10179 10178 10176 10174 10173 10171 10168 10166 10163 10160 10157 10155 10152 10150 10147 10144 10141 10138 10134 10131 10127 10124 10121 10118 10115 10112 10109 10106 10102 10098 10093 10088 10083 10078 10072 10068 10063 10058 10054 10050 10045 10041 10037 10033 10030 10027 10024 10022 10018 10016 10013 10011 10008 10006 10003 10001 9999 9997 9995 9992 9990 9988 9986 9984 9981 9979 9977 9975 9972 9970 9967 9965 9962 9959 9956
10183 10183 10181 10180 10179 10178 10177 10175 10174 10173 10171 10170 10168 10166 10164 10162 10159 10156 10153 10150 10147 10144 10142 10139 10136 10133 10130 10126 10123 10119 10115 10112 10108 10105 10102 10099 10096 10093 10089 10085 10080 10074 10068 10063 10058 10054 10049 10044 10040 10036 10031 10027 10022 10019 10016 10013 10011 10008 10005 10002 10000 9998 9995 9993 9991 9989 9986 9984 9982 9979 9977 9975 9972 9970 9968 9966 9964 9962 9960 9958 9955 9953 9951 9948 9946
10175 10174 10173 10171 10170 10169 10168 10167 10165 10164 10162 10161 10158 10156 10154 10152 10149 10146 10143 10140 10137 10134 10131 10128 10125 10122 10118 10114 10110 10106 10102 10099 10095 10092 10089 10086 10083 10080 10076 10072 10067 10061 10055 10050 10045 10040 10036 10031 10027 10023 10018 10013 10009 10005 10002 10000 9997 9995 9992 9990 9987 9985 9983 9981 9979 9977 9974 9971 9969 9967 9964 9962 9960 9958 9956 9954 9952 9950 9948 9946 9943 9941 9939 9937 9934
10167 10165 10164 10163 10162 10161 10159 10158 10156 10155 10153 10151 10148 10146 10144 10142 10139 10136 10133 10129 10127 10124 10120 10117 10114 10110 10106 10102 10098 10094 10090 10086 10082 10079 10076 10073 10070 10067 10063 10059 10054 10048 10043 10037 10032 10028 10023 10018 10014 10009 10005 10001 9997 9993 9990 9987 9985 9983 9980 9977 9975 9973 9971 9969 9967 9965 9962 9959 9957 9955 9953 9951 9949 9948 9945 9943 9941 9939 9936 9934 9932 9929 9927 9924 9922
10158 10156 10155 10154 10153 10152 10150 10149 10147 10145 10143 10141 10139 10137 10135 10132 10129 10126 10122 10119 10116 10113 10109 10105 10101 10097 10093 10089 10085 10081 10077 10074 10070 10066 10063 10060 10057 10054 10050 10046 10041 10036 10030 10024 10019 10015 10010 10006 10002 9997 9993 9989 9985 9982 9979 9976 9974 9971 9968 9966 9963 9961 9960 9958 9955 9953 9950 9948 9946 9945 9943 9942 9939 9938 9936 9933 9931 9929 9926 9924 9921 9918 9915 9912 9910
10149 10147 10146 10145 10144 10142 10141 10139 10138 10136 10134 10131 10129 10126 10124 10121 10118 10115 10111 10108 10105 10101 10098 10093 10089 10085 10080 10076 10073 10069 10065 10061 10058 10054 10051 10047 10044 10041 10037 10033 10028 10023 10018 10012 10007 10002 9998 9994 9990 9986 9982 9978 9974 9972 9969 9966 9963 9960 9957 9955 9952 9950 9949 9947 9944 9943 9940 9938 9937 9935 9934 9932 9930 9928 9926 9923 9921 9918 9916 9914 9910 9907 9904 9900 9898
10139 10138 10137 10135 10134 10132 10131 10130 10128 10126 10124 10121 10118 10116 10113 10109 10107 10103 10100 10096 10093 10090 10086 10081 10076 10072 10068 10064 10060 10056 10052 10049 10045 10042 10038 10035 10032 10028 10024 10021 10016 10011 10005 10000 9994 9990 9986 9983 9979 9975 9971 9967 9964 9961 9959 9956 9953 9950 9947 9945 9942 9940 9938 9936 9934 9933 9931 9929 9928 9926 9924 9922 9920 9918 9916 9914 9911 9908 9906 9904 9900 9896 9893 9889 9886
10130 10128 10127 10126 10124 10123 10121 10119 10118 10116 10113 10110 10107 10104 10101 10098 10095 10091 10088 10084 10081 10077 10073 10069 10064 10060 10056 10052 10048 10044 10040 10037 10033 10029 10026 10023 10019 10016 10012 10007 10003 9998 9993 9988 9983 9979 9975 9971 9968 9965 9961 9958 9954 9951 9948 9946 9943 9941 9938 9935 9933 9931 9929 9927 9925 9923 9921 9920 9918 9917 9915 9913 9911 9910 9907 9905 9903 9899 9896 9894 9891 9886 9883 9878 9873
10120 10118 10117 10115 10114 10112 10111 10108 10107 10104 10102 10099 10096 10092 10089 10086 10082 10079 10075 10072 10069 10065 10061 10056 10051 10047 10044 10040 10036 10032 10028 10025 10020 10017 10014 10011 10008 10004 9999 9994 9990 9986 9982 9977 9972 9968 9964 9960 9957 9954 9952 9949 9945 9942 9939 9936 9934 9931 9928 9926 9924 9922 9920 9918 9917 9915 9913 9911 9910 9908 9906 9904 9902 9900 9898 9896 9894 9890 9887 9884 9881 9878 9873 9867 9861
10110 10108 10106 10105 10103 10102 10099 10097 10095 10093 10090 10087 10084 10080 10077 10073 10070 10066 10063 10060 10056 10052 10048 10043 10039 10035 10031 10028 10024 10020 10017 10013 10008 10004 10002 10000 9996 9992 9987 9982 9978 9974 9970 9966 9962 9957 9953 9950 9946 9944 9941 9939 9937 9934 9930 9927 9924 9921 9919 9917 9914 9913 9911 9910 9908 9907 9905 9903 9901 9899 9897 9896 9894 9892 9890 9887 9885 9881 9877 9874 9870 9866 9863 9858 9851
10099 10097 10095 10093 10092 10090 10087 10085 10083 10080 10078 10075 10071 10068 10064 10060 10057 10053 10050 10047 10043 10039 10035 10030 10026 10023 10019 10016 10012 10009 10005 10001 9997 9993 9991 9989 9985 9980 9976 9971 9967 9963 9959 9955 9951 9948 9944 9940 9937 9934 9932 9930 9927 9925 9922 9919 9916 9913 9910 9908 9906 9904 9903 9901 9900 9898 9897 9895 9893 9891 9889 9887 9885 9883 9880 9878 9876 9872 9869 9864 9860 9855 9851 9847 9842
10086 10084 10083 10081 10079 10077 10074 10072 10070 10067 10065 10062 10058 10055 10051 10047 10044 10040 10037 10034 10031 10026 10022 10018 10014 10011 10007 10004 10001 9998 9994 9990 9986 9982 9980 9977 9974 9969 9964 9960 9956 9952 9948 9944 9941 9938 9934 9931 9928 9925 9923 9921 9919 9916 9914 9911 9908 9905 9902 9900 9898 9896 9895 9893 9892 9890 9888 9886 9885 9883 9881 9879 9877 9874 9871 9869 9867 9864 9860 9856 9851 9846 9841 9838 9834
10074 10072 10070 10068 10066 10063 10061 10059 10056 10054 10052 10049 10046 10042 10038 10034 10031 10027 10024 10022 10018 10014 10009 10005 10002 9998 9995 9992 9990 9986 9983 9980 9975 9971 9968 9966 9963 9958 9954 9950 9946 9942 9938 9934 9931 9928 9925 9922 9919 9917 9914 9913 9911 9908 9906 9903 9900 9898 9895 9893 9891 9889 9887 9886 9884 9882 9880 9879 9877 9875 9873 9871 9868 9865 9862 9860 9857 9855 9852 9847 9843 9838 9834 9830 9826
10061 10059 10057 10055 10053 10050 10048 10045 10043 10040 10038 10035 10032 10029 10025 10022 10018 10014 10012 10009 10005 10001 9997 9993 9990 9987 9983 9980 9978 9975 9972 9969 9965 9961 9958 9955 9951 9947 9943 9940 9936 9932 9928 9924 9921 9918 9916 9913 9911 9909 9907 9905 9903 9900 9898 9896 9893 9891 9888 9886 9884 9883 9881 9879 9877 9875 9873 9871 9869 9867 9865 9863 9860 9857 9854 9851 9848 9845 9843 9838 9835 9831 9827 9823 9818
10049 10046 10044 10042 10040 10037 10035 10033 10030 10027 10025 10022 10019 10016 10013 10009 10005 10001 9999 9996 9992 9989 9985 9981 9978 9975 9972 9969 9966 9963 9960 9957 9954 9950 9947 9943 9940 9936 9933 9929 9926 9922 9918 9914 9911 9909 9907 9905 9904 9901 9899 9897 9895 9893 9890 9888 9886 9884 9882 9879 9878 9876 9874 9872 9870 9868 9866 9864 9863 9861 9858 9855 9852 9849 9846 9843 9839 9835 9832 9829 9826 9823 9819 9815 9811
10036 10033 10031 10029 10027 10025 10022 10020 10017 10014 10012 10009 10006 10003 10000 9996 9992 9988 9985 9983 9980 9976 9973 9969 9966 9964 9960 9957 9954 9951 9948 9945 9942 9938 9935 9932 9929 9925 9922 9919 9917 9913 9909 9905 9902 9900 9899 9898 9896 9893 9891 9889 9887 9885 9883 9881 9879 9877 9875 9873 9871 9869 9868 9866 9864 9861 9860 9858 9856 9854 9851 9848 9845 9841 9837 9835 9831 9827 9823 9819 9816 9814 9811 9806 9801
10023 10020 10018 10016 10014 10012 10009 10007 10004 10001 9998 9995 9993 9990 9986 9983 9979 9975 9971 9969 9966 9963 9960 9957 9954 9952 9948 9945 9942 9940 9937 9933 9930 9926 9924 9921 9918 9914 9912 9909 9907 9903 9900 9897 9894 9892 9890 9889 9887 9885 9884 9882 9880 9878 9876 9874 9872 9870 9869 9867 9865 9862 9861 9859 9858 9855 9853 9851 9849 9846 9844 9841 9837 9832 9829 9827 9825 9821 9816 9812 9809 9805 9802 9799 9793
10009 10006 10004 10002 10000 9998 9996 9993 9990 9987 9984 9982 9979 9976 9972 9969 9965 9961 9958 9955 9953 9950 9948 9945 9942 9939 9936 9933 9931 9928 9925 9921 9918 9915 9912 9910 9907 9904 9902 9899 9897 9894 9892 9890 9887 9884 9882 9880 9879 9878 9877 9875 9873 9871 9869 9867 9865 9864 9862 9860 9858 9857 9854 9853 9851 9849 9847 9844 9842 9839 9836 9833 9829 9825 9822 9819 9817 9813 9809 9805 9803 9799 9795 9791 9785
9994 9992 9990 9988 9986 9984 9981 9979 9976 9973 9971 9968 9964 9961 9958 9955 9951 9947 9944 9942 9939 9937 9935 9932 9929 9926 9923 9921 9919 9916 9913 9909 9906 9903 9901 9899 9897 9895 9892 9890 9887 9885 9884 9882 9879 9877 9875 9873 9872 9870 9869 9868 9866 9864 9862 9860 9859 9857 9856 9854 9852 9851 9849 9846 9844 9842 9839 9837 9835 9832 9829 9826 9823 9820 9816 9813 9809 9806 9802 9798 9795 9792 9787 9783 9777
9978 9977 9975 9973 9971 9969 9967 9964 9962 9959 9956 9953 9950 9947 9944 9940 9936 9933 9930 9928 9926 9924 9922 9919 9916 9913 9911 9910 9907 9904 9901 9897 9894 9892 9890 9889 9887 9885 9883 9881 9878 9877 9875 9873 9871 9870 9869 9867 9865 9863 9862 9861 9859 9857 9855 9854 9852 9850 9849 9848 9847 9845 9843 9840 9838 9835 9833 9831 9828 9825 9822 9820 9817 9814 9811 9807 9803 9799 9796 9794 9789 9783 9779 9776 9771
9964 9962 9960 9958 9956 9954 9951 9949 9947 9944 9941 9939 9936 9932 9929 9925 9922 9919 9917 9915 9913 9910 9908 9906 9903 9901 9899 9898 9895 9892 9888 9886 9883 9881 9880 9879 9878 9876 9874 9872 9871 9869 9867 9865 9863 9863 9862 9860 9858 9857 9855 9854 9852 9851 9849 9848 9846 9845 9843 9842 9841 9840 9837 9835 9832 9829 9826 9824 9822 9819 9816 9814 9812 9809 9805 9801 9797 9793 9790 9787 9782 9775 9771 9770 9766
9949 9947 9945 9943 9940 9938 9936 9933 9931 9928 9926 9923 9921 9917 9913 9910 9907 9905 9903 9901 9899 9897 9895 9893 9891 9889 9887 9885 9883 9879 9877 9875 9873 9871 9870 9869 9868 9867 9866 9864 9863 9861 9859 9857 9856 9856 9855 9853 9852 9850 9849 9847 9846 9845 9844 9842 9841 9839 9838 9837 9836 9834 9832 9829 9826 9823 9820 9818 9816 9814 9811 9809 9806 9804 9800 9796 9792 9788 9783 9779 9775 9770 9766 9763 9761
9933 9931 9929 9926 9924 9922 9920 9918 9915 9913 9910 9908 9905 9901 9898 9895 9892 9891 9889 9887 9885 9883 9882 9880 9878 9877 9875 9873 9870 9868 9866 9865 9863 9862 9861 9861 9859 9859 9857 9856 9855 9853 9851 9850 9850 9849 9848 9846 9845 9844 9843 9841 9840 9839 9838 9837 9836 9834 9833 9832 9830 9828 9825 9822 9819 9817 9815 9813 9811 9808 9806 9804 9801 9797 9794 9791 9787 9782 9777 9773 9770 9766 9762 9758 9755
9917 9915 9912 9910 9908 9906 9904 9902 9900 9897 9895 9893 9890 9886 9883 9881 9879 9877 9876 9874 9872 9870 9869 9867 9866 9865 9863 9861 9858 9857 9856 9855 9853 9853 9853 9852 9851 9850 9849 9848 9847 9846 9844 9844 9843 9842 9841 9839 9838 9837 9837 9835 9834 9834 9832 9831 9830 9829 9827 9826 9824 9822 9819 9816 9813 9811 9809 9808 9806 9803 9801 9799 9795 9791 9788 9785 9781 9777 9772 9768 9766 9762 9758 9754 9750
9901 9899 9896 9894 9892 9890 9888 9886 9884 9882 9880 9877 9874 9872 9869 9867 9866 9864 9863 9861 9859 9857 9856 9855 9854 9853 9851 9849 9848 9847 9846 9845 9845 9844 9844 9843 9842 9842 9841 9840 9839 9839 9838 9837 9836 9835 9834 9833 9832 9831 9831 9830 9829 9828 9827 9826 9824 9823 9822 9820 9818 9816 9814 9811 9809 9807 9805 9803 9801 9799 9796 9793 9790 9786 9782 9778 9775 9772 9769 9765 9762 9758 9755 9751 9746
9885 9883 9880 9879 9877 9875 9873 9871 9869 9867 9865 9863 9861 9858 9856 9854 9853 9852 9850 9848 9846 9845 9844 9843 9843 9842 9840 9839 9838 9838 9837 9837 9837 9836 9835 9834 9834 9834 9833 9832 9832 9832 9832 9831 9830 9829 9828 9827 9826 9825 9825 9824 9824 9823 9822 9820 9819 9818 9816 9815 9813 9811 9809 9807 9804 9802 9800 9798 9797 9794 9791 9788 9784 9780 9777 9774 9771 9768 9765 9762 9758 9755 9751 9748 9744
9870 9868 9866 9864 9862 9860 9859 9857 9855 9854 9852 9849 9847 9846 9844 9842 9841 9840 9838 9836 9835 9834 9833 9832 9832 9830 9829 9829 9829 9829 9829 9829 9828 9827 9827 9826 9826 9826 9825 9825 9825 9825 9825 9824 9823 9823 9822 9821 9820 9820 9820 9819 9819 9818 9816 9815 9814 9813 9811 9809 9808 9806 9804 9802 9800 9798 9796 9794 9792 9789 9786 9783 9779 9776 9773 9770 9767 9764 9762 9759 9756 9752 9748 9745 9741
9856 9854 9852 9850 9848 9847 9845 9843 9842 9840 9838 9836 9835 9834 9832 9831 9829 9828 9826 9824 9823 9823 9822 9822 9821 9820 9820 9819 9820 9820 9820 9820 9820 9819 9819 9819 9819 9819 9818 9818 9818 9818 9818 9818 9817 9817 9816 9815 9815 9815 9815 9814 9813 9813 9812 9810 9809 9808 9806 9804 9803 9801 9799 9797 9796 9795 9792 9790 9787 9784 9781 9778 9775 9773 9770 9767 9764 9762 9759 9756 9753 9750 9746 9743 9739
9842 9840 9838 9837 9835 9833 9832 9830 9829 9827 9826 9824 9822 9821 9820 9819 9818 9816 9815 9814 9813 9812 9812 9812 9811 9811 9811 9811 9811 9812 9812 9812 9812 9812 9812 9812 9812 9812 9811 9811 9812 9812 9812 9811 9811 9811 9810 9810 9810 9810 9809 9809 9808 9808 9807 9805 9804 9802 9801 9799 9798 9796 9795 9794 9792 9791 9788 9785 9782 9780 9777 9775 9773 9770 9767 9765 9763 9760 9758 9755 9751 9748 9745 9741 9737
9829 9827 9825 9824 9822 9820 9819 9818 9816 9815 9813 9812 9810 9810 9809 9808 9807 9805 9805 9804 9803 9803 9802 9802 9802 9802 9802 9803 9803 9804 9804 9805 9805 9805 9805 9805 9805 9805 9805 9805 9806 9806 9805 9805 9805 9805 9805 9805 9805 9804 9804 9804 9803 9803 9802 9800 9799 9797 9796 9794 9793 9792 9792 9791 9789 9787 9784 9781 9779 9777 9774 9772 9770 9768 9766 9764 9762 9759 9756 9753 9750 9746 9743 9739 9734
9816 9815 9813 9811 9810 9808 9807 9805 9804 9803 9802 9801 9799 9799 9798 9798 9796 9795 9795 9794 9794 9794 9793 9793 9793 9794 9794 9795 9795 9796 9797 9797 9797 9797 9798 9798 9798 9798 9799 9800 9800 9800 9799 9799 9800 9800 9800 9800 9800 9799 9799 9799 9798 9798 9797 9795 9794 9793 9791 9790 9789 9789 9788 9787 9786 9783 9780 9778 9776 9774 9772 9770 9768 9766 9764 9763 9761 9758 9755 9752 9749 9745 9741 9737 9732
9805 9803 9801 9800 9798 9797 9796 9794 9793 9792 9791 9790 9789 9789 9788 9788 9787 9786 9786 9785 9785 9785 9785 9785 9785 9785 9786 9787 9788 9789 9789 9790 9790 9790 9791 9791 9792 9792 9793 9794 9794 9794 9794 9794 9794 9795 9795 9795 9795 9795 9795 9794 9794 9793 9792 9791 9790 9789 9787 9787 9786 9786 9785 9784 9782 9779 9777 9775 9774 9772 9770 9768 9767 9766 9764 9762 9760 9757 9754 9751 9747 9744 9740 9735 9731
9794 9792 9791 9789 9788 9786 9785 9784 9783 9783 9782 9781 9780 9779 9779 9779 9778 9777 9777 9777 9777 9777 9777 9777 9777 9777 9778 9779 9780 9781 9782 9783 9783 9783 9784 9785 9786 9786 9787 9787 9788 9788 9788 9789 9789 9790 9790 9790 9790 9790 9790 9790 9789 9788 9788 9786 9786 9785 9784 9784 9783 9783 9782 9780 9778 9776 9775 9773 9771 9770 9769 9767 9766 9765 9763 9761 9759 9756 9753 9750 9746 9742 9738 9734 9729
9783 9782 9780 9779 9778 9777 9776 9775 9774 9773 9773 9772 9771 9771 9770 9770 9769 9769 9768 9768 9768 9769 9769 9769 9769 9770 9771 9772 9773 9774 9775 9775 9776 9776 9777 9778 9779 9780 9781 9781 9782 9782 9782 9783 9784 9785 9785 9785 9785 9785 9785 9785 9785 9784 9784 9783 9782 9782 9781 9781 9781 9780 9778 9776 9775 9774 9773 9771 9770 9769 9768 9767 9766 9765 9763 9761 9758 9755 9752 9748 9745 9741 9737 9733 9728
9773 9772 9771 9769 9768 9767 9766 9766 9765 9764 9764 9763 9762 9762 9761 9761 9761 9760 9760 9760 9760 9761 9761 9761 9762 9763 9764 9765 9766 9767 9768 9768 9769 9770 9771 9772 9773 9774 9775 9775 9776 9777 9777 9778 9779 9780 9780 9780 9781 9781 9781 9781 9780 9780 9780 9780 9779 9779 9779 9779 9778 9776 9775 9774 9773 9772 9771 9770 9769 9769 9768 9767 9766 9765 9763 9760 9757 9754 9751 9748 9745 9741 9737 9733 9729